Theta_e
315 313 309 305 304 305 307 307 307 308 309 311 311 309 311 312 313 315 314 312 314 314 315 315 315 315 315 315 313 313 315 315 315 315 316 316 316 317 317 316 316 317 317 318 317
315 313 308 303 302 305 306 307 307 307 308 310 309 309 312 313 317 315 312 313 314 314 315 315 315 315 315 315 315 315 315 315 314 315 315 316 316 317 316 316 317 317 317 316 316
315 314 307 306 305 306 306 307 307 308 308 310 309 308 315 315 318 315 313 313 314 317 316 315 314 315 316 316 316 316 315 316 315 315 315 316 316 316 317 317 317 316 317 317 317
314 314 307 307 307 307 307 308 309 309 309 311 312 312 318 320 317 315 312 313 313 316 316 316 317 316 316 317 317 316 315 315 315 315 315 316 316 316 316 317 317 317 317 317 317
314 314 309 307 308 308 309 309 310 310 310 311 314 311 317 317 317 316 312 314 317 316 316 317 318 318 318 318 317 317 317 317 317 317 317 317 317 316 316 316 316 317 317 317 317
314 313 313 306 308 309 309 309 310 311 311 312 315 311 318 317 315 316 316 315 315 316 316 316 317 317 318 318 318 318 318 318 318 317 317 317 317 317 316 315 315 316 317 317 317
314 313 313 305 308 309 309 311 312 312 312 313 315 314 318 317 316 317 317 317 316 316 317 316 316 317 317 318 318 318 319 318 318 317 317 317 317 317 317 317 317 318 319 318 319
314 311 308 305 307 310 311 312 313 313 313 315 315 320 316 316 317 317 317 317 317 317 317 316 316 317 317 318 318 318 318 320 319 318 317 317 318 317 317 318 319 318 318 319 319
314 309 305 307 310 311 311 312 313 314 313 315 320 320 316 315 316 315 316 316 316 316 316 315 316 318 317 318 319 319 319 318 317 317 317 317 318 318 317 318 319 319 319 319 320
314 309 306 310 312 310 311 312 313 315 314 313 316 318 316 315 315 315 315 315 316 315 317 317 317 317 317 317 317 316 316 316 316 316 315 316 316 317 318 318 318 319 319 319 319
314 310 308 311 310 311 313 315 320 319 318 317 317 316 315 315 314 315 313 314 314 316 316 315 316 316 314 315 315 315 315 315 315 315 317 317 317 317 318 319 318 319 319 319 320
313 311 309 310 310 312 315 317 315 316 320 316 316 315 315 314 316 315 314 315 315 317 315 316 316 314 314 314 314 314 315 315 315 316 318 318 319 319 319 319 319 319 319 319 319
312 313 310 311 311 314 315 314 313 314 321 317 316 315 315 314 315 315 315 315 315 316 315 316 316 314 314 314 314 315 316 317 318 317 318 317 320 319 319 320 319 319 319 319 319
312 314 313 311 313 313 315 313 314 314 322 316 315 315 315 316 316 313 314 315 316 316 315 316 315 314 314 314 314 316 315 316 318 319 320 318 323 319 319 319 320 320 320 320 320
311 315 316 315 315 317 315 314 313 318 323 317 314 313 316 317 316 315 314 315 316 316 314 316 315 315 315 314 314 316 316 317 319 320 320 320 321 320 319 319 319 319 320 320 321
309 315 316 317 316 313 315 314 318 324 321 316 315 316 318 318 316 315 315 316 316 315 315 316 315 315 315 314 314 314 316 318 319 321 324 320 320 319 319 319 319 320 320 320 320
307 315 315 315 318 314 315 319 323 319 317 318 318 318 319 319 316 316 317 317 319 323 317 317 316 315 315 316 314 314 317 326 325 329 326 319 320 319 319 318 318 318 319 320 320
310 315 315 316 315 314 316 320 321 317 317 318 320 320 320 316 317 317 317 318 316 314 319 319 319 315 314 315 314 315 318 327 326 323 321 319 320 319 318 318 317 318 319 319 319
314 318 319 316 315 315 320 318 319 319 319 320 320 319 318 316 319 317 318 319 315 315 318 320 318 316 315 314 314 317 322 320 325 322 325 320 318 318 317 317 318 319 319 319 320
315 319 318 314 315 319 319 316 318 318 319 319 321 320 320 320 319 319 318 317 316 315 316 319 322 316 314 314 316 317 318 322 325 326 325 318 319 317 317 317 318 318 320 321 321
317 321 317 314 318 318 316 317 316 317 318 321 321 322 321 320 320 319 318 317 315 316 316 317 322 318 316 316 314 316 321 321 320 324 323 322 319 318 318 318 318 319 319 320 320
317 318 315 316 317 316 315 315 313 317 318 319 320 320 321 320 320 318 318 317 316 316 318 317 319 322 317 314 314 315 318 319 328 321 321 321 323 317 318 317 318 319 318 318 317
316 316 313 315 314 314 316 314 315 316 318 316 319 319 317 319 322 318 317 315 315 316 317 316 319 322 319 314 317 316 314 315 318 320 323 325 319 315 315 317 317 317 317 318 318
314 316 314 315 314 316 315 316 314 314 315 317 317 314 317 318 317 317 316 313 314 314 316 318 319 320 321 317 316 318 316 315 317 322 322 322 319 318 317 316 315 315 315 316 317
313 316 315 316 313 315 316 315 315 316 315 314 315 315 315 316 317 316 314 314 314 315 315 316 319 316 315 314 315 315 314 314 316 317 322 319 318 316 315 315 315 314 315 314 315
313 312 311 312 313 315 313 315 314 315 312 313 314 314 313 313 314 314 314 316 316 315 316 315 316 315 316 314 314 315 315 316 315 315 316 317 317 314 313 313 313 312 313 313 313
307 308 311 311 312 313 313 313 313 312 312 312 312 312 313 313 312 314 314 315 315 318 318 317 316 316 316 314 314 319 317 315 315 314 318 318 315 314 314 312 311 311 311 311 311
Wind_Speed
21 18 15 12 8 7 8 9 10 11 12 13 13 8 6 7 9 5 13 5 5 7 5 1 4 4 3 5 2 2 6 9 11 7 10 4 12 10 8 15 15 14 17 15 10
22 19 15 13 10 8 8 9 9 10 11 12 12 6 3 5 6 15 5 7 9 9 9 9 6 2 3 2 1 4 6 6 6 7 10 11 13 14 14 15 14 13 16 19 19
25 19 13 11 9 8 7 8 8 9 10 10 10 4 2 4 3 10 5 6 9 9 7 7 2 1 3 2 3 1 6 4 10 10 8 14 17 16 16 18 15 11 13 13 10
29 20 10 8 7 6 6 7 8 9 8 8 8 4 4 4 3 4 2 3 6 6 5 8 8 2 3 6 4 9 2 6 11 10 15 18 18 21 20 20 16 17 13 15 14
33 23 11 5 4 5 6 7 9 8 5 5 6 3 2 8 11 2 1 3 4 5 7 7 8 6 6 7 5 7 6 9 13 16 16 15 17 20 23 22 21 20 17 18 18
32 26 13 5 3 4 6 10 10 6 2 4 5 3 3 13 2 0 3 5 5 6 6 7 7 8 5 9 8 9 14 17 16 13 7 13 17 14 14 16 19 17 16 17 17
33 27 15 5 4 6 9 11 5 3 4 4 4 3 8 8 1 3 5 7 6 7 9 4 7 8 11 12 5 14 18 17 15 8 14 18 18 23 13 13 14 16 17 17 16
34 26 14 7 5 8 11 6 5 6 4 4 4 2 7 2 2 5 6 8 5 8 9 9 7 11 10 13 15 18 15 12 12 13 13 10 22 19 16 14 18 17 15 17 17
33 22 13 8 7 11 10 6 7 5 5 3 1 5 6 1 2 5 6 7 7 5 6 6 9 11 13 13 14 15 16 22 26 20 18 20 28 23 18 17 20 21 20 20 19
30 19 12 8 9 12 6 5 3 3 1 1 2 5 5 7 2 5 4 5 5 9 8 7 7 10 12 12 15 21 23 22 24 24 24 27 29 25 24 24 24 24 22 21 21
30 18 10 8 9 13 6 1 4 5 1 4 4 2 2 6 3 2 6 11 6 7 7 7 10 10 14 12 13 17 22 26 26 23 23 27 27 27 24 24 25 23 22 22 23
31 17 10 6 7 9 9 4 5 4 2 1 2 2 2 5 5 2 8 7 7 11 9 11 10 6 10 12 17 21 23 25 24 20 18 24 30 29 26 25 25 24 24 24 23
29 14 11 2 6 5 8 6 7 3 5 4 2 3 3 7 8 4 6 10 9 11 12 11 13 10 12 17 20 18 19 20 22 23 22 25 30 20 18 16 20 25 25 25 25
25 11 10 3 1 3 3 8 7 5 5 6 4 3 3 10 3 5 4 9 11 11 11 9 6 13 17 18 16 17 16 21 23 21 19 19 24 25 21 20 17 18 20 22 22
20 9 8 5 5 4 7 9 3 3 4 3 3 3 6 6 11 5 3 8 15 15 8 8 14 18 16 11 13 18 17 19 24 24 24 24 13 19 17 18 12 8 9 13 15
18 9 9 6 2 4 8 2 3 5 2 2 1 5 11 12 4 8 11 10 13 10 10 15 15 15 10 14 12 19 17 19 25 13 9 15 8 10 9 10 8 5 4 4 11
16 5 9 6 6 10 4 4 5 4 2 3 6 11 17 10 10 9 17 12 8 7 11 20 6 5 9 14 18 16 13 8 5 5 10 10 11 11 17 12 9 10 11 5 4
12 4 7 8 7 7 4 5 4 5 5 8 10 19 12 8 9 13 13 13 4 8 12 10 17 4 9 22 22 18 9 6 8 12 19 20 9 7 17 13 8 8 10 7 5
6 1 2 13 8 6 7 3 4 4 4 10 17 9 4 5 9 11 13 12 4 4 7 13 11 23 18 9 11 9 10 10 7 19 13 9 14 14 4 3 2 5 5 5 1
5 1 7 17 7 6 4 1 2 2 6 8 7 3 11 16 10 14 11 5 8 1 8 12 15 14 7 20 6 10 7 6 4 6 13 11 18 13 5 11 4 2 2 2 2
3 3 8 16 3 3 3 4 5 3 5 4 9 14 15 15 9 17 7 13 7 12 16 15 5 12 22 17 19 11 5 6 4 6 10 15 8 11 8 14 18 4 4 6 6
5 2 12 11 1 2 3 4 4 4 3 7 7 8 8 11 14 8 11 10 13 19 18 10 5 16 23 22 15 12 15 13 5 13 14 12 19 21 15 10 13 18 7 8 9
6 3 8 9 3 4 2 4 4 6 3 5 5 4 9 12 7 7 11 5 21 10 6 3 3 9 13 6 6 11 17 18 18 15 20 13 14 17 18 19 21 21 19 15 14
4 3 2 5 3 4 6 3 5 2 8 4 9 11 7 11 12 12 20 7 12 19 23 19 9 15 15 23 24 27 26 23 18 7 20 19 28 25 24 25 22 19 20 21 23
4 3 3 4 2 7 4 3 7 5 3 9 4 6 10 8 17 21 13 21 22 20 10 5 13 19 23 24 25 28 30 26 21 20 10 21 25 27 25 24 21 23 22 20 22
5 5 4 6 5 7 0 3 7 5 6 5 8 7 12 18 20 27 23 21 15 13 9 4 10 16 24 24 25 27 26 17 13 14 19 22 30 28 20 21 22 20 22 25 24
7 3 4 1 4 5 4 5 7 12 7 10 10 17 17 17 15 20 24 26 23 23 20 9 6 9 20 20 25 16 3 9 14 15 12 18 32 28 25 21 22 24 26 25 24
Wind_Direction
9 5 2 4 18 21 20 19 18 15 14 7 1 11 65 86 77 89 61 48 29 29 17 161 100 103 108 94 85 254 246 254 261 253 258 253 290 290 292 275 273 266 270 285 307
10 5 10 22 33 35 25 16 10 7 5 3 2 12 88 111 79 67 61 42 30 37 44 25 47 127 99 96 68 284 265 330 351 307 277 290 280 297 291 277 269 265 256 259 267
11 7 12 27 36 35 27 18 10 5 2 4 11 24 99 178 123 60 47 44 41 37 37 30 50 323 59 341 14 344 298 329 279 286 279 282 283 281 273 270 266 266 284 280 249
11 6 9 20 27 25 19 10 357 357 0 8 16 49 92 240 57 83 20 19 20 14 25 27 36 56 355 3 358 285 338 303 298 291 274 275 281 276 266 271 281 271 272 272 265
9 6 3 4 12 16 4 355 347 347 355 13 17 49 268 105 86 102 288 317 325 349 16 8 22 348 1 339 303 266 323 293 289 284 278 284 270 271 271 270 262 261 260 264 267
6 2 1 348 344 355 348 338 335 346 7 32 34 97 261 86 80 326 261 283 291 315 351 344 357 352 285 309 288 328 300 294 284 286 252 275 277 274 271 269 258 258 259 255 258
4 1 2 0 347 356 350 345 5 74 51 62 62 108 70 71 152 288 278 283 282 284 300 322 322 301 324 303 344 295 291 285 267 256 276 302 272 258 246 260 255 259 261 250 255
5 5 14 30 15 5 358 21 69 85 62 88 73 274 79 87 313 312 309 289 265 265 270 282 280 279 273 305 275 274 291 275 300 296 301 264 280 286 278 241 269 263 257 254 253
9 13 28 43 21 8 9 68 95 58 77 99 5 279 82 44 19 3 3 340 309 262 251 255 260 282 285 271 294 275 284 299 300 300 291 277 276 280 273 271 260 266 263 257 249
10 18 27 36 26 6 35 85 77 52 31 317 265 225 87 10 300 331 5 343 309 303 236 233 275 269 267 275 301 313 301 297 293 301 298 286 281 281 277 272 265 263 252 252 251
10 19 32 57 46 21 45 260 214 173 75 11 40 42 42 356 242 339 359 324 307 257 291 322 294 296 325 311 300 295 290 291 291 297 295 287 284 279 278 271 263 260 256 247 249
10 23 44 77 48 35 33 57 33 352 222 144 145 211 332 338 292 304 338 344 313 318 306 288 283 346 300 292 293 295 292 289 298 307 306 296 285 285 281 271 264 259 254 246 245
8 18 30 69 39 44 47 47 346 255 258 161 202 277 9 310 313 307 312 327 313 312 335 301 301 313 292 303 300 294 290 300 305 304 290 284 280 285 287 270 257 252 251 251 242
6 13 20 26 148 359 52 336 310 204 253 140 195 154 279 324 248 296 308 327 303 316 324 290 311 299 307 302 310 302 315 305 295 300 296 307 291 292 288 281 270 264 251 245 237
6 15 19 29 336 352 333 334 145 221 269 85 143 34 310 317 317 114 323 304 304 318 277 270 313 315 305 309 318 299 306 302 289 286 287 282 267 290 281 272 289 274 257 243 229
1 21 17 16 25 342 328 175 213 234 218 142 290 296 313 334 301 301 305 296 284 293 277 272 275 276 294 309 290 302 291 296 280 276 276 279 309 301 316 345 337 346 31 335 223
351 32 41 36 351 326 311 222 257 269 131 37 328 323 320 309 296 320 321 314 309 309 312 315 264 246 285 302 304 304 310 295 274 223 274 339 293 295 305 318 318 315 298 281 232
348 157 30 29 331 325 273 256 267 45 348 344 318 310 297 358 322 323 307 309 310 281 311 313 314 353 317 304 296 297 298 271 296 308 305 313 280 309 331 308 279 300 269 246 228
62 52 41 346 328 302 273 277 1 359 353 321 310 284 284 255 332 316 310 310 313 313 317 317 288 317 303 322 307 308 269 293 284 268 265 251 252 241 198 76 93 50 23 207 123
5 240 27 342 325 269 263 305 279 291 319 301 297 298 316 324 316 332 312 347 318 274 335 298 301 304 287 310 279 238 275 277 221 280 298 294 307 293 17 348 42 84 37 165 187
324 219 8 343 308 249 341 345 302 333 325 295 289 294 301 313 298 313 275 310 14 326 327 312 248 274 301 291 300 279 249 236 274 273 287 299 285 19 341 311 305 317 281 291 295
319 244 355 350 213 6 346 344 352 289 290 286 284 283 301 319 298 288 270 291 336 321 299 322 276 281 298 289 268 285 287 286 262 278 289 290 283 279 292 313 322 303 275 264 277
340 320 359 323 0 357 343 286 273 299 310 295 285 283 312 294 303 266 274 297 314 320 336 301 265 298 299 293 183 285 302 290 282 280 272 265 270 298 303 300 291 289 281 260 258
314 315 72 61 60 337 337 294 296 270 282 258 281 293 303 293 281 278 291 303 293 303 291 289 260 263 276 289 304 297 293 282 271 265 287 282 290 301 295 290 295 296 292 287 287
5 46 10 323 36 326 284 286 302 313 269 291 268 247 324 287 296 283 290 304 302 298 274 266 275 293 288 288 288 285 287 295 289 276 273 287 290 293 305 309 305 301 297 289 280
347 344 330 292 291 292 150 272 294 296 305 283 276 310 297 286 285 292 296 292 299 293 285 251 285 296 287 286 290 304 303 294 291 286 284 286 289 290 309 299 295 288 280 273 269
9 334 291 289 302 294 340 314 305 314 274 251 302 305 294 288 293 285 285 284 275 278 284 267 261 288 289 302 308 291 356 300 285 290 279 280 290 301 294 292 295 292 284 277 277